Location: Stamford Observatory
(41.1241°N, 73.5498°W)
Time: 13:45:15
(UTC-04:00)

IRS-P3 - Visible Passes

Search period start: 28 July 2015 00:00
Search period end: 07 August 2015 00:00
Orbit: 815 x 819 km, 98.7° (Epoch: 27 July)

Date Brightness Start Highest point End Pass type
(mag) Time Alt. Az. Time Alt. Az. Time Alt. Az.
28 Jul 6.5 01:02:55 10° ENE 01:04:01 11° E 01:04:15 11° E visible
28 Jul 4.0 02:39:32 10° NNE 02:44:55 88° WNW 02:45:33 70° SSW visible
28 Jul 6.2 04:21:58 10° NW 04:24:16 12° WNW 04:26:17 10° W visible
29 Jul 4.3 02:18:01 10° NNE 02:23:18 59° E 02:23:38 58° ESE visible
29 Jul 5.8 03:59:12 10° NNW 04:02:56 19° WNW 04:04:56 15° W visible
30 Jul 5.0 01:56:42 10° NNE 02:01:37 37° E 02:01:43 37° E visible
30 Jul 5.3 03:37:00 10° N 03:41:33 28° WNW 03:43:01 25° W visible
31 Jul 5.7 01:35:38 10° NE 01:39:48 24° E 01:39:48 24° E visible
31 Jul 4.7 03:15:04 10° N 03:20:06 43° WNW 03:21:06 39° W visible
01 Aug 6.3 01:15:05 10° NE 01:17:53 15° E 01:17:53 15° E visible
01 Aug 4.1 02:53:18 10° N 02:58:36 67° WNW 02:59:11 62° WSW visible
02 Aug 4.0 02:31:40 10° NNE 02:37:02 79° ESE 02:37:15 77° SE visible
02 Aug 6.1 04:13:33 10° NNW 04:16:30 15° WNW 04:18:33 12° W visible
03 Aug 4.6 02:10:14 10° NNE 02:15:20 50° E 02:15:20 50° E visible
03 Aug 5.6 03:51:04 10° NNW 03:55:09 22° WNW 03:56:38 19° W visible
04 Aug 5.4 01:48:59 10° NNE 01:53:25 32° E 01:53:25 32° E visible
04 Aug 5.0 03:28:59 10° N 03:33:44 33° WNW 03:34:43 31° W visible
05 Aug 6.0 01:28:04 10° NE 01:31:29 20° E 01:31:29 20° E visible
05 Aug 4.4 03:07:06 10° N 03:12:16 51° WNW 03:12:47 49° W visible
06 Aug 6.5 01:07:54 10° ENE 01:09:34 12° E 01:09:34 12° E visible
06 Aug 4.0 02:45:24 10° N 02:50:45 79° WNW 02:50:52 78° W visible
06 Aug 6.3 04:28:30 10° NW 04:30:01 11° WNW 04:31:15 10° WNW visible
